Regional Weather Roundup
Issued by NWS Goodland, KS

Home | Current Version | Previous Version | Graphics & Text | Print | Product List | Glossary On
Versions: 1 2 3 4 5 6 7 8 9 10 11 12 13 14 15 16 17 18 19 20 21 22 23 24 25 26 27 28 29 30 31 32 33 34 35 36 37 38 39 40 41 42 43 44 45 46 47 48 49 50
000
ASUS43 KGLD 010259
RWRGLD

GOODLAND FORECAST AREA HOURLY WEATHER ROUNDUP
NATIONAL WEATHER SERVICE GOODLAND KS
900 PM MDT TUE SEP 30 2014

...OFFICIAL OBSERVATIONS...

CITY           SKY/WX    TMP DP  RH WIND       PRES   REMARKS
GOODLAND KS    CLOUDY    59  48  67 S3        29.78R
HILL CITY KS   CLEAR     65  60  84 E6        29.73R
IMPERIAL NEB   MOCLDY    59  48  67 CALM      29.76R
MCCOOK NEB     MOCLDY    64  49  57 E3        29.73S
AKRON CO       CLOUDY    56  43  61 SW5       29.83R
BURLINGTON CO  CLOUDY    56  44  64 SW8       29.81R
LIMON CO       CLOUDY    56  46  69 NW10      29.88R
$$

...UNOFFICIAL OBSERVATIONS...

CITY           SKY/WX    TMP DP  RH WIND       PRES   REMARKS
COLBY KS         N/A     61  54  77 CALM      29.76S HAZE
GOVE KS          N/A     59  32  36 MISG        N/A
NORTON KS      CLEAR     59  48  67 NE5       29.73R
SHARON SPRINGS   N/A     60  49  66 SW5         N/A
WAKEENEY KS      N/A     63  53  70 MISG        N/A
KIT CARSON CO    N/A     57  46  68 MISG        N/A
YUMA CO          N/A     55  46  73 CALM        N/A
$$


USA.gov is the U.S. government's official web portal to all federal, state and local government web resources and services.